This demonstration page uses our WeatherBlox Daily Observations layout. Learn more.

Left ArrowRight Arrow

Hourly Observations for November 25, 2020

Temp ( °F °C ) Dew Point ( °F °C ) Humidity (%) Winds ( mph kmh ) Pressure ( in mb ) Visibility ( mi km ) Precip ( " mm )
12:53 am 00:53 Mostly Cloudy 42 5.6 36 2.2 79 79 ESE 3 6 30.05 1018 10 16 0.00 0.00
1:53 am 01:53 Cloudy 47 8.3 35 1.7 63 63 VRB 3 6 30.04 1017 10 16 0.00 0.00
2:53 am 02:53 Cloudy with Light Rain 47 8.3 36 2.2 66 66 Calm 30.04 1017 10 16 0.00 0.00
3:53 am 03:53 Cloudy with Light Rain 44 6.7 40 4.4 85 85 Calm 30.05 1018 10 16 0.01 0.25
4:53 am 04:53 Cloudy with Light Rain 44 6.7 41 5 89 89 E 3 6 30.04 1017 6 10 0.07 1.78
5:53 am 05:53 Cloudy with Light Rain 44 6.7 42 5.6 93 93 VRB 3 6 30.04 1017 7 11 0.09 2.29
6:53 am 06:53 Cloudy with Rain 44 6.7 43 6.1 96 96 VRB 3 6 30.03 1017 4 6 0.20 5.08
7:05 am 07:05 Cloudy with Heavy Rain 44 6.7 43 6.1 96 96 Calm 30.04 1017 2 3 0.09 2.29
7:15 am 07:15 Cloudy with Rain 45 7.2 43 6.1 93 93 VRB 5 7 30.04 1017 4 6 0.11 2.79
7:26 am 07:26 Cloudy with Rain 45 7.2 43 6.1 93 93 SE 3 6 30.04 1017 3 5 0.15 3.81
7:53 am 07:53 Cloudy with Rain 45 7.2 43 6.1 93 93 SSE 5 7 30.02 1017 6 10 0.20 5.08
8:53 am 08:53 Cloudy with Rain 47 8.3 45 7.2 93 93 VRB 5 7 29.99 1016 3 5 0.17 4.32
9:53 am 09:53 Cloudy with Rain 49 9.4 47 8.3 93 93 VRB 5 7 29.97 1015 4 6 0.11 2.79
10:53 am 10:53 Cloudy with Rain 51 10.6 48 8.9 89 89 VRB 7 11 29.94 1014 5 8 0.11 2.79
11:53 am 11:53 Cloudy 51 10.6 49 9.4 92 92 VRB 6 9 29.91 1013 10 16 0.07 1.78
12:39 pm 12:39 Cloudy with Light Rain 52 11.1 50 10 93 93 VRB 6 9 29.90 1012 5 8 0.03 0.76
12:53 pm 12:53 Cloudy with Light Rain 52 11.1 50 10 93 93 VRB 5 7 29.89 1012 7 11 0.03 0.76
1:23 pm 13:23 Cloudy with Light Rain 52 11.1 51 10.6 97 97 VRB 3 6 29.89 1012 6 10 0.01 0.25
1:53 pm 13:53 Cloudy 53 11.7 51 10.6 93 93 SSE 7 11 29.86 1011 10 16 0.01 0.25
2:53 pm 14:53 Cloudy 55 12.8 52 11.1 90 90 VRB 6 9 29.83 1010 10 16 0.00 0.00
3:53 pm 15:53 Cloudy 55 12.8 53 11.7 93 93 undefined N/A 29.81 1010 10 16 0.00 0.00
4:53 pm 16:53 Cloudy 56 13.3 53 11.7 90 90 VRB 3 6 29.80 1009 10 16 0.00 0.00
5:53 pm 17:53 Mostly Clear 56 13.3 53 11.7 90 90 VRB 3 6 29.77 1008 10 16 0.00 0.00
7:53 pm 19:53 Cloudy with Heavy Rain 58 14.4 55 12.8 90 90 WSW 10 17 29.79 1009 3 4 0.09 2.29
8:03 pm 20:03 Cloudy with Light Rain 58 14.4 55 12.8 90 90 SW 8 13 29.78 1008 10 16 0.00 0.00
8:53 pm 20:53 Cloudy 57 13.9 54 12.2 90 90 SW 5 7 29.78 1008 10 16 0.00 0.00
9:53 pm 21:53 Mostly Clear 55 12.8 51 10.6 87 87 WSW 8 13 29.81 1010 10 16 0.00 0.00
10:53 pm 22:53 Cloudy 55 12.8 49 9.4 80 80 WSW 12 19 29.85 1011 10 16 0.00 0.00
11:53 pm 23:53 Cloudy 54 12.2 49 9.4 83 83 SW 10 17 29.87 1012 10 16 0.00 0.00

Powered by AerisWeather